Showing default

PICO-01B009, 58287

Orbit data source: Space-Track

PICO-01B009, 58287 is a payload satellite owned by Apogeo Space (IT) in SSO that was launched on Sat, 11 Nov 2023 UTC via an FALCON 9 launch vehicle from the Air Force Western Test Range (AFWTR). Payload-class satellites include a variety of spacecraft equipped with specific instruments for various scientific and technological missions. These include communications satellites like Starlink; space stations such as the ISS; scientific satellites like the Hubble; Earth observation satellites from companies like Planet Labs, Umbra, and HawkEye 360; GPS; miniature CubeSats for education and research; and military/defense satellites.

Not visible in the next 10 days
Identifier
58287, 2023-174AH
Orbit
SSO
Country
Flag of ITIT
Related business
Manufacturer
Apogeo Space
Mission
Operational Commercial Communications
Bus & Motor
CUBESAT 0.3U, Unknown motor
Mass
0.5 kg wet, 0.5 kg dry
Launch date (UTC)
2023-11-11 (2 years ago)
Launch vehicle
FALCON 9
Launch site
Air Force Western Test Range (AFWTR)
Object type
Payload
Rocket body
Debris
Shape & HBR
Box, 0.1 m
Radar Cross Section
0.008 m², Small (<0.1 m²)

Expand to show TLE details & history
Last TLE update: 1 day ago

TLE from 1 day ago
0 PICO-01B009
1 58287U 23174AH  25306.51325103  .00039666  00000-0  77536-3 0  9994
2 58287  97.4012  28.6890 0005031 224.6274 135.4572 15.47334752110790
Epoch: 2025-11-02T12:19Z
TLE epoch observation values (Epoch: 2025-11-02T12:19:04.888Z)
Latitude
-0°
Longitude
161.89073°
Altitude
430.095 km
Speed
7.652 km/s
True Right ascension
01h 54m 45s
True Declination
0° 00' 00"
Sunlit
Object was in full shadow at epoch
Visualization orbit readout
Latitude
Unknown
Longitude
Unknown
Altitude
Unknown
Speed
Unknown
Apparent Right ascension
Unknown
Apparent Declination
Unknown
Sunlit
N/A
Visualization observer readout
Local Sidereal Time
16:26:24
Azimuth
Unknown
Elevation
Unknown
Doppler factor
Unknown
Orbital elements
Apogee altitude
424.877 km
Perigee altitude
418.035 km
Semi-major axis
6,799.593 km
Eccentricity
0.0005
Inclination
97.4012°
RAAN
28.689°
Arg. of periapsis
224.6274°
True anomaly
135.49762°
Mean anomaly
135.4572°
Eccentric anomaly
135.47741°
Mean motion
3.87096 °/min
Orbital period
93 mins
BSTAR
0.00077536
Loading maneuver chart data...
Computing Atmospheric mass density...
Loading historical data...
Loading historical data...
Loading historical data...
Loading historical data...
Loading historical data...
Loading historical data...
Loading historical data...

Documentation

Showing up to 5 results
|